Regional Weather Roundup
Issued by NWS

Home | Current Version | Previous Version | Text Only | Print | Product List | Glossary On
Versions: 1 2 3 4 5 6 7 8 9 10 11 12 13 14 15 16 17 18 19 20 21 22 23 24 25 26 27
000
ASUS42 KTBW 311817
RWRFL
FLORIDA REGIONAL WEATHER ROUNDUP
NATIONAL WEATHER SERVICE TAMPA BAY RUSKIN FL
200 PM EDT TUE MAY 31 2016

NOTE: "FAIR" INDICATES FEW OR NO CLOUDS BELOW 12,000 FEET WITH NO
SIGNIFICANT WEATHER AND/OR OBSTRUCTIONS TO VISIBILITY.

FLZ001>010-012>015-112-114-115-311900-
PANHANDLE FLORIDA

CITY           SKY/WX    TMP DP  RH WIND       PRES   REMARKS
PENSACOLA      SUNNY     90  70  51 S13       29.94S HX  95
PENSACOLA NAS  PTSUNNY   88  72  58 S13       29.95S
MILTON NAS     PTSUNNY   89  69  51 NW3       29.94
CRESTVIEW      PTSUNNY   93  63  36 N6        29.94F
DUKE FIELD     MOSUNNY   89  70  53 S16       29.93S THUNDER
VALPARAISO     MOSUNNY   87  72  61 S12G17    29.93F
MARY ESTHER    SUNNY     86  71  61 S12       29.93S
TRI COUNTY     FAIR      93  65  39 CALM      29.93F HX  95
PANAMA CITY    FAIR      88  75  65 S14       29.93F HX  97
TYNDALL AFB    MOSUNNY   84  76  75 SW12      29.95F
APALACHICOLA   CLOUDY    87  75  67 SW8       29.95F HX  96

STATION/POSITION SKY/WX   TEMP    WIND        PRES    WAVE   SWELL
                          AIR SEA DIR/SP/G            HT/PER HT/PER
                          (F)     (DEG/KT/KT) (MB)    (FT/S) (FT/S)
30.1N   87.6W              82 84              1014.0R   1
29.2N   88.2W              82 81   CALM  /  2 1015.0S
28.8N   86.0W              80 85  280/  2/  4 1015.5F   1
PANAMA CITY BEAC           80 80  220/  9/ 10 1014.7F
TOWER C                    79     270/  8/  8 1015.1F
28.5N   84.5W              80 83   CALM  /  2 1014.8F   1

$$
FLZ011-016>038-118-127-128-134-139-239-311900-
NORTH FLORIDA

CITY           SKY/WX    TMP DP  RH WIND       PRES   REMARKS
MARIANNA       MOSUNNY   94  65  38 VRB7      29.92F HX  96
TALLAHASSEE    MOSUNNY   95  64  35 VRB7      29.92F HX  97
PERRY          SUNNY     91  69  48 S8        29.94F HX  95
LIVE OAK       PTSUNNY   93  64  38 SW3       29.94F HX  95
CROSS CITY       N/A     93  64  38 SW7       29.93F
LAKE CITY      FAIR      91  63  38 NW6       29.93F
GAINESVILLE    SUNNY     93  63  36 N6        29.93F
WILLISTON      FAIR      93  64  38 W3        29.94F HX  95
PALATKA        FAIR      93  63  36 S3        29.93F
MAYPORT NAS    PTSUNNY   86  72  62 E12       29.92F
JACKSONVILLE   PTSUNNY   92  64  39 VRB3      29.90F
JAX NAS        MOSUNNY   93  65  39 E12       29.92F HX  95
JAX CECIL      PTSUNNY   95  63  34 NW7       29.92F HX  96
FERNANDINA BEA FAIR      88  70  55 NE9       29.91F
ST AUGUSTINE   SUNNY     88  74  63 SE14      29.93F HX  96

STATION/POSITION SKY/WX   TEMP    WIND        PRES    WAVE   SWELL
                          AIR SEA DIR/SP/G            HT/PER HT/PER
                          (F)     (DEG/KT/KT) (MB)    (FT/S) (FT/S)
SHELL POINT                84     160/ 10/ 12 1013.2
KEATON BEACH               80     260/  8/  9 1014.0F
CEDAR KEY                  82     250/  5/  8 1014.9F
FERNANDINA                 85 81  320/  2/  3 1013.7F
30.7N   81.3W                 81                N/A     2/ 8
MAYPORT                    88 81  240/  5/  7 1013.8F
31.4N   80.9W              76 79   70/  8/  8 1013.7F   3/ 8   3/ 8
ST AUGUSTINE               79 81  140/ 11/ 12 1014.5F

$$
FLZ040-043>046-052-053-057-058-063-144-311900-
INTERIOR CENTRAL FLORIDA

CITY           SKY/WX    TMP DP  RH WIND       PRES   REMARKS
OCALA          MOSUNNY   91  64  40 VRB5      29.94F
THE VILLAGES     N/A     90  68  48 MISG      29.84F
LEESBURG       SUNNY     91  63  39 S7        29.95F
SANFORD        MOSUNNY   89  66  46 VRB5      29.94F
ORLANDO EXEC   MOSUNNY   90  67  46 VRB3      29.95F
ORLANDO INTL   MOSUNNY   89  66  46 VRB3      29.94F
KISSIMMEE      MOSUNNY   90  63  40 VRB5      29.96F
WINTER HAVEN   SUNNY     92  65  40 VRB3      29.96F
LAKELAND       PTSUNNY   90  70  51 VRB5      29.95F HX  95
BARTOW         PTSUNNY   86  64  48 VRB5      29.96
OKEECHOBEE     SUNNY     88  70  55 S3        29.95F

$$
FLZ041-047-054-059-064-141-147-311900-
EAST CENTRAL FLORIDA

CITY           SKY/WX    TMP DP  RH WIND       PRES   REMARKS
DAYTONA BEACH  MOSUNNY   90  68  48 CALM      29.94F
DELAND           N/A     88  64  45 CALM      29.95F
NEW SMYRNA BEA MOSUNNY   88  70  55 E8        29.97F
JFK SPACE CTR  PTSUNNY   86  71  60 E8        29.94F
TITUSVILLE     PTSUNNY   88  68  51 E12       29.95F
CAPE CANAVERAL MOSUNNY   86  72  62 SE8       29.94F
PATRICK AFB    SUNNY     86  71  60 E10       29.94F
MELBOURNE      MOSUNNY   87  70  56 E9        29.95F
VERO BEACH     SUNNY     88  70  55 E9        29.95F
FT PIERCE      SUNNY     87  73  62 E10       29.95F
STUART         MOSUNNY   88  72  58 E12       29.97F

STATION/POSITION SKY/WX   TEMP    WIND        PRES    WAVE   SWELL
                          AIR SEA DIR/SP/G            HT/PER HT/PER
                          (F)     (DEG/KT/KT) (MB)    (FT/S) (FT/S)
28.5N   80.2W              79 82  240/  2/  2 1015.4F
28.9N   78.5W              80 80  200/  8/ 10 1015.3F
TRIDENT PIER               86 82  170/  3/  5 1014.9F
28.4N   80.5W                 83                N/A     1/ 8

$$
FLZ050-056-061-142-242-148-248-149-249-151-251-155-255-
160-260-311900-
WEST CENTRAL FLORIDA

CITY           SKY/WX    TMP DP  RH WIND       PRES   REMARKS
CRYSTAL RIVER  FAIR      90  63  40 W8        29.96S
INVERNESS      FAIR      90  70  51 SW3       29.95F HX  95
BROOKSVILLE    MOSUNNY   90  65  43 CALM      29.95F
ZEPHYRHILLS    FAIR      89  61  38 NW6       29.95F
CLEARWATER AIR FAIR      86  64  48 W6        29.96F
ST PETE CLEARW RAIN      89  69  51 S14       29.96F
TAMPA INTL     MOSUNNY   89  62  40 SW9       29.95F
TAMPA EXEC     MOSUNNY   95  64  36 W3        29.95F HX  97
PLANT CITY     PTSUNNY   90  70  51 W3        29.97F HX  95
MACDILL AFB    MOSUNNY   89  74  61 SW9       29.95F HX  97
PETER O KNIGHT SUNNY     91  73  55 S8        29.95F HX 100
ST PETERSBURG  SUNNY     83  69  62 W8        29.94F
SARASOTA       SUNNY     88  71  57 W12       29.94F
VENICE         NOT AVBL

STATION/POSITION SKY/WX   TEMP    WIND        PRES    WAVE   SWELL
                          AIR SEA DIR/SP/G            HT/PER HT/PER
                          (F)     (DEG/KT/KT) (MB)    (FT/S) (FT/S)
27.3N   84.2W                 83                N/A     1
CLEARWATER BEACH           81 84  330/  5/  6 1015.2F
MIDDLE TAMPA BAY           81     270/  4/  6 1015.4F
VENICE                     82 83  260/  9/ 10 1014.0F

$$
FLZ066-069-070-075>078-162-262-165-265-311900-
SOUTHWEST FLORIDA AND KEYS

CITY           SKY/WX    TMP DP  RH WIND       PRES   REMARKS
PUNTA GORDA    MOSUNNY   90  65  43 VRB7      29.96F
FT MYERS       MOSUNNY   90  65  43 N7        29.94F
SOUTHWEST INTL SUNNY     90  67  46 VRB5      29.95F
NAPLES         MOSUNNY   87  70  56 W10       29.95F
MARCO ISLAND     N/A     90  70  51 SW9       29.96S HX  95
MARATHON       CLOUDY    85  72  65 N7        29.95F
KEY WEST NAS   MOSUNNY   84  72  67 VRB7      29.95F
KEY WEST INTL  CLOUDY    83  73  72 SE5       29.95F

STATION/POSITION SKY/WX   TEMP    WIND        PRES    WAVE   SWELL
                          AIR SEA DIR/SP/G            HT/PER HT/PER
                          (F)     (DEG/KT/KT) (MB)    (FT/S) (FT/S)
NAPLES                        85              1014.6F
26.0N   85.6W              80 83   90/  6/  6 1015.4S   1
DRY TORTUGAS               82      60/  6/  7 1014.5F
SAND KEY                   81                 1014.9F
LONG KEY                   83 88   CALM  /  3 1014.8R

$$
FLZ067-068-071>074-168-172>174-311900-
SOUTHEAST FLORIDA

CITY           SKY/WX    TMP DP  RH WIND       PRES   REMARKS
W PALM BEACH   CLOUDY    86  69  56 E14       29.96F
FT LAUDER-EXEC CLOUDY    79  66  64 W12       29.98R THUNDER
FT LAUDERDALE  CLOUDY    82  71  69 E5        29.97R
POMPANO BEACH  CLOUDY    82  71  69 E7        29.97S
PEMBROKE PINES LGT RAIN  77  69  76 W6        29.99R
OPA LOCKA      LGT RAIN  77  73  87 N3        29.99R
MIAMI          CLOUDY    81  70  69 CALM      29.98S
WEST KENDALL   CLOUDY    75  70  84 NW5       29.98F
HOMESTEAD      DRIZZLE   79  70  73 N6        29.96F

STATION/POSITION SKY/WX   TEMP    WIND        PRES    WAVE   SWELL
                          AIR SEA DIR/SP/G            HT/PER HT/PER
                          (F)     (DEG/KT/KT) (MB)    (FT/S) (FT/S)
PORT EVERGLADES            82      80/  3/  5 1015.0R
VIRGINIA KEY               82 84   80/  6/  8 1015.2F
LAKE WORTH                 81 84   50/  9/ 11 1014.8F
FOWEY ROCKS                80 85   90/ 10/ 10 1015.4R
SETTLEMENT POINT           82      70/  6/  8 1015.3F

$$





USA.gov is the U.S. government's official web portal to all federal, state and local government web resources and services.